Regional Weather Roundup
Issued by NWS Kansas City/Pleasant Hill, MO

Home | Current Version | Previous Version | Text Only | Print | Product List | Glossary On
Versions: 1 2 3 4 5 6 7 8 9 10 11 12 13 14 15 16 17 18 19 20 21 22 23 24 25 26 27
000
ASUS43 KEAX 200910
RWREAX

WEATHER ROUNDUP FOR EASTERN KANSAS AND NORTHWEST MISSOURI
NATIONAL WEATHER SERVICE KANSAS CITY/PLEASANT HILL MO
400 AM CDT WED SEP 20 2017

KSZ040-057-103>105-MOZ028-029-037-043-201000-
...KANSAS CITY METROPOLITAN AREA...

CITY           SKY/WX    TMP DP  RH WIND       PRES   REMARKS
K.C. INTL      CLEAR     76  69  79 S14G23    29.71S
K.C. DOWNTOWN  CLEAR     78  70  76 S9        29.71S
LEES SUMMIT    CLEAR     75  70  84 S15G22    29.74F
OLATHE - IXD   CLOUDY    75  69  81 S14       29.73S
OLATHE - OJC   CLEAR     74  70  87 S13G20    29.73F
LAWRENCE       PTCLDY    77  70  79 S12       29.69F

$$

MOZ001>008-011>017-020>025-030>033-038>040-044>046-053-054-201000-
...NORTHERN AND CENTRAL MISSOURI...

CITY           SKY/WX    TMP DP  RH WIND       PRES   REMARKS
ST. JOSEPH     MOCLDY    77  70  79 S14       29.68R
MOSBY          SUNNY     77  68  73 S6        29.72S
WARRENSBURG    CLEAR     72  66  83 S8        29.76S
WHITEMAN AFB   PTCLDY    73  68  84 S12       29.76F
CLINTON        CLEAR     73  68  83 S8        29.78F
SEDALIA        CLEAR     75  70  84 S10       29.79F
WARSAW         NOT AVBL
CHILLICOTHE      N/A     74  69  85 S7        29.74F
KIRKSVILLE     CLEAR     73  67  81 S12       29.78S

$$

MOZ041-047>049-056>058-063>065-088>090-097-201000-
...EASTERN AND SOUTHERN MISSOURI...

CITY           SKY/WX    TMP DP  RH WIND       PRES   REMARKS
ST. LOUIS INTL CLEAR     75  69  81 S7        29.86F
SPIRIT OF STL  CLEAR     74  68  81 S6        29.84S
COLUMBIA       CLEAR     74  69  85 S14G20    29.82F
JEFFERSON CITY CLEAR     74  67  78 E6        29.81S
ROLLA          CLEAR     72  69  90 S10       29.87F
OSAGE BEACH    CLEAR     71  68  90 SE7       29.84F
SPRINGFIELD    CLEAR     73  69  87 S13       29.84F
BRANSON        CLEAR     68  68 100 CALM      29.88S
JOPLIN         CLEAR     76  72  87 S15G24    29.80S
WEST PLAINS    CLEAR     71  69  93 S6        29.91S

$$

IAZ060-094-KSZ022-034>040-054-083-096-NEZ052-066-093-201000-
...KANSAS...SOUTHEAST NEBRASKA AND IOWA...

CITY           SKY/WX    TMP DP  RH WIND       PRES   REMARKS
TOPEKA         CLOUDY    78  71  79 S16G24    29.67F
MANHATTAN      CLOUDY    79  70  74 S14       29.65S
EMPORIA        MOCLDY    74  68  81 S21G28    29.69F
CHANUTE        CLEAR     75  70  84 S13       29.76F
WICHITA        MOCLDY    76  68  76 S17       29.69F
OMAHA          MOCLDY    75  69  81 SE8       29.64R
LINCOLN        CLEAR     77  68  73 W8        29.64R
FALLS CITY     CLOUDY    78  69  73 S18G28    29.64S
LAMONI         CLOUDY    72  68  87 S8        29.71S
DES MOINES     MOCLDY    76  68  76 S13       29.67F

$$





USA.gov is the U.S. government's official web portal to all federal, state and local government web resources and services.